Estació meteorològica de Susqueda - Presa de (La Selva, Susqueda)

Consulta les dades en temps real de l'estació meteorològica de Susqueda - Presa de





Hora UTC 21:50
Temperatura 25.2 ºC
Humitat 60.0 %
Pressió 1019.2 hPa
Pluja 0.0 mm
Velocitat vent 1.6 km/h
Direcció vent W

Webcam

Dades diàries 2026-09-06



Hora UTC (hivern +1h; estiu +2h)
Temperatura (ºC) Humitat (%) Pressió (hPa) Velocitat vent (km/h) Precipitació (mm)
Hora UTC Aire Humitat Pressió Vel. Dir. Vel. Max Dir. Intent. màx 5 min.
00:05 24.3 60.0 1019.1 0.0 WSW 0.0 0.0
00:10 24.1 61.0 1019.0 0.0 WSW 8.0 0.0
00:15 24.1 62.0 1019.0 0.0 W 1.6 0.0
00:20 23.9 62.0 1019.0 0.0 WSW 8.0 0.0
00:25 23.8 62.0 1019.0 0.0 W 8.0 0.0
00:30 23.8 62.0 1018.9 0.0 W 8.0 0.0
00:35 23.8 62.0 1018.9 1.6 WNW 8.0 0.0
00:40 23.8 62.0 1018.9 9.7 W 11.3 0.0
00:45 23.6 62.0 1018.9 6.4 WNW 11.3 0.0
00:50 23.6 62.0 1018.9 1.6 W 9.7 0.0
00:55 23.6 62.0 1018.9 9.7 W 11.3 0.0
01:00 23.5 63.0 1018.8 0.0 W 11.3 0.0
01:05 23.5 63.0 1018.7 8.0 WSW 11.3 0.0
01:10 23.5 63.0 1018.7 0.0 WNW 11.3 0.0
01:15 23.4 63.0 1018.8 1.6 W 8.0 0.0
01:20 23.4 63.0 1018.8 0.0 W 9.7 0.0
01:25 23.3 64.0 1018.8 9.7 W 11.3 0.0
01:30 23.3 64.0 1018.9 8.0 WSW 11.3 0.0
01:35 23.2 64.0 1018.8 0.0 WNW 11.3 0.0
01:40 23.3 64.0 1018.8 0.0 W 11.3 0.0
01:45 23.1 64.0 1018.9 0.0 WNW 11.3 0.0
01:50 23.2 64.0 1018.8 6.4 WNW 11.3 0.0
01:55 23.2 64.0 1018.8 8.0 WNW 11.3 0.0
02:00 23.2 64.0 1018.7 1.6 WNW 11.3 0.0
02:05 23.1 64.0 1018.7 0.0 W 9.7 0.0
02:10 23.0 65.0 1018.8 0.0 W 9.7 0.0
02:15 22.9 65.0 1018.8 1.6 W 8.0 0.0
02:20 22.9 65.0 1018.8 0.0 WNW 8.0 0.0
02:25 22.8 66.0 1018.8 0.0 W 8.0 0.0
02:30 22.7 66.0 1018.7 4.8 W 8.0 0.0
02:35 22.7 66.0 1018.7 0.0 W 9.7 0.0
02:40 22.6 67.0 1018.7 0.0 WNW 9.7 0.0
02:45 22.6 66.0 1018.8 0.0 W 3.2 0.0
02:50 22.6 66.0 1018.7 0.0 W 8.0 0.0
02:55 22.5 67.0 1018.7 0.0 W 11.3 0.0
03:00 22.5 66.0 1018.7 8.0 WNW 11.3 0.0
03:05 22.4 67.0 1018.7 0.0 WNW 8.0 0.0
03:10 22.3 67.0 1018.6 0.0 W 11.3 0.0
03:15 22.3 67.0 1018.6 1.6 WNW 11.3 0.0
03:20 22.4 67.0 1018.7 3.2 WNW 12.9 0.0
03:25 22.4 67.0 1018.7 6.4 W 12.9 0.0
03:30 22.3 67.0 1018.6 0.0 WNW 12.9 0.0
03:35 22.3 67.0 1018.6 0.0 W 11.3 0.0
03:40 22.3 67.0 1018.6 4.8 WSW 11.3 0.0
03:45 22.3 67.0 1018.5 6.4 W 11.3 0.0
03:50 22.3 67.0 1018.5 9.7 W 11.3 0.0
03:55 22.1 67.0 1018.5 8.0 WNW 11.3 0.0
04:00 22.1 68.0 1018.4 0.0 W 11.3 0.0
04:05 22.2 67.0 1018.4 8.0 WNW 11.3 0.0
04:10 22.2 67.0 1018.3 3.2 WNW 11.3 0.0
04:15 22.1 68.0 1018.4 9.7 W 11.3 0.0
04:20 22.2 67.0 1018.4 4.8 WNW 11.3 0.0
04:25 22.0 68.0 1018.4 0.0 WNW 11.3 0.0
04:30 22.1 68.0 1018.4 8.0 WNW 11.3 0.0
04:35 22.2 67.0 1018.3 0.0 WNW 11.3 0.0
04:40 22.1 68.0 1018.3 4.8 NW 11.3 0.0
04:45 22.2 67.0 1018.3 4.8 W 11.3 0.0
04:50 22.0 68.0 1018.4 0.0 WNW 9.7 0.0
04:55 22.0 68.0 1018.4 0.0 WNW 11.3 0.0
05:00 21.9 68.0 1018.5 0.0 W 11.3 0.0
05:05 21.8 69.0 1018.6 0.0 W 9.7 0.0
05:10 21.7 69.0 1018.6 0.0 W 9.7 0.0
05:15 21.8 69.0 1018.5 3.2 NW 11.3 0.0
05:20 21.8 69.0 1018.6 0.0 WSW 11.3 0.0
05:25 21.9 69.0 1018.6 6.4 W 8.0 0.0
05:30 21.8 69.0 1018.6 9.7 WNW 11.3 0.0
05:35 21.8 69.0 1018.7 0.0 WSW 11.3 0.0
05:40 21.8 69.0 1018.7 9.7 W 11.3 0.0
05:45 21.9 69.0 1018.7 11.3 WSW 11.3 0.0
05:50 21.9 69.0 1018.7 9.7 W 12.9 0.0
05:55 21.8 69.0 1018.7 1.6 W 12.9 0.0
06:00 21.7 70.0 1018.7 9.7 W 11.3 0.0
06:05 21.4 70.0 1018.8 0.0 W 11.3 0.0
06:10 21.4 71.0 1018.8 6.4 W 11.3 0.0
06:15 21.5 71.0 1018.8 6.4 W 11.3 0.0
06:20 21.4 71.0 1018.9 0.0 W 11.3 0.0
06:25 21.5 71.0 1019.0 0.0 W 11.3 0.0
06:30 21.6 71.0 1019.0 6.4 W 11.3 0.0
06:35 21.6 71.0 1019.1 0.0 W 8.0 0.0
06:40 21.8 70.0 1019.1 1.6 W 11.3 0.0
06:45 21.8 70.0 1019.1 0.0 WNW 11.3 0.0
06:50 21.9 70.0 1019.0 4.8 WSW 9.7 0.0
06:55 22.0 70.0 1019.1 0.0 WSW 9.7 0.0
07:00 22.1 71.0 1019.1 0.0 W 6.4 0.0
07:05 22.2 69.0 1019.1 0.0 W 0.0 0.0
07:10 22.3 69.0 1019.1 0.0 WSW 0.0 0.0
07:15 22.5 68.0 1019.1 0.0 W 1.6 0.0
07:20 22.7 68.0 1019.1 0.0 W 0.0 0.0
07:25 22.6 70.0 1019.2 0.0 WSW 0.0 0.0
07:30 22.7 69.0 1019.2 0.0 SW 0.0 0.0
07:35 22.8 69.0 1019.2 0.0 SW 0.0 0.0
07:40 22.9 67.0 1019.1 0.0 WSW 0.0 0.0
07:45 23.1 68.0 1019.1 0.0 WSW 0.0 0.0
07:50 23.2 68.0 1019.1 0.0 WSW 0.0 0.0
07:55 23.2 67.0 1019.1 0.0 WSW 0.0 0.0
08:00 23.3 69.0 1019.0 0.0 WSW 0.0 0.0
08:05 23.4 67.0 1019.1 0.0 WSW 0.0 0.0
08:10 23.6 67.0 1019.1 0.0 WSW 0.0 0.0
08:15 23.8 66.0 1019.1 0.0 WSW 0.0 0.0
08:20 23.9 66.0 1019.1 0.0 WSW 0.0 0.0
08:25 24.1 65.0 1019.1 0.0 WSW 0.0 0.0
08:30 24.4 63.0 1019.1 0.0 WSW 0.0 0.0
08:35 24.7 63.0 1019.2 0.0 WSW 0.0 0.0
08:40 24.8 65.0 1019.1 0.0 WSW 0.0 0.0
08:45 24.8 66.0 1019.1 0.0 WSW 0.0 0.0
08:50 24.8 65.0 1019.2 0.0 WSW 0.0 0.0
08:55 24.9 64.0 1019.0 0.0 WSW 0.0 0.0
09:00 25.7 64.0 1019.1 0.0 WSW 0.0 0.0
09:05 26.9 60.0 1019.0 0.0 ESE 1.6 0.0
09:10 28.2 52.0 1019.0 0.0 E 1.6 0.0
09:15 29.7 49.0 1019.0 0.0 ESE 1.6 0.0
09:20 30.6 46.0 1019.0 0.0 ENE 6.4 0.0
09:25 31.5 42.0 1018.9 0.0 E 6.4 0.0
09:30 32.3 40.0 1018.8 0.0 ESE 11.3 0.0
09:35 32.7 39.0 1018.8 0.0 ESE 11.3 0.0
09:40 32.3 40.0 1018.8 0.0 E 11.3 0.0
09:45 32.6 39.0 1018.8 0.0 ESE 11.3 0.0
09:50 32.1 40.0 1018.7 0.0 SE 12.9 0.0
09:55 32.3 40.0 1018.6 0.0 E 12.9 0.0
10:00 32.8 39.0 1018.5 0.0 SE 11.3 0.0
10:05 33.2 39.0 1018.5 0.0 E 11.3 0.0
10:10 33.5 37.0 1018.5 0.0 ESE 11.3 0.0
10:15 33.6 38.0 1018.4 3.2 E 11.3 0.0
10:20 33.7 37.0 1018.4 0.0 E 11.3 0.0
10:25 33.6 37.0 1018.4 0.0 SE 9.7 0.0
10:30 33.7 37.0 1018.4 4.8 E 9.7 0.0
10:35 33.5 37.0 1018.2 6.4 ESE 11.3 0.0
10:40 33.6 37.0 1018.2 0.0 ESE 11.3 0.0
10:45 33.8 37.0 1018.2 6.4 E 11.3 0.0
10:50 33.8 37.0 1018.0 1.6 ESE 11.3 0.0
10:55 34.2 36.0 1018.0 0.0 E 11.3 0.0
11:00 34.3 36.0 1017.9 0.0 SE 11.3 0.0
11:05 34.4 36.0 1017.9 0.0 ESE 9.7 0.0
11:10 34.5 36.0 1017.8 0.0 ENE 12.9 0.0
11:15 34.7 36.0 1017.8 0.0 ESE 12.9 0.0
11:20 34.5 36.0 1017.8 6.4 E 12.9 0.0
11:25 34.6 36.0 1017.7 0.0 NE 12.9 0.0
11:30 34.9 36.0 1017.6 0.0 E 9.7 0.0
11:35 34.8 36.0 1017.6 0.0 E 12.9 0.0
11:40 34.6 36.0 1017.6 4.8 ENE 12.9 0.0
11:45 34.4 36.0 1017.5 1.6 ESE 12.9 0.0
11:50 34.8 35.0 1017.4 11.3 E 12.9 0.0
11:55 34.8 35.0 1017.5 0.0 E 12.9 0.0
12:00 35.3 35.0 1017.5 0.0 E 11.3 0.0
12:05 35.5 34.0 1017.5 0.0 E 9.7 0.0
12:10 35.7 34.0 1017.5 0.0 ENE 9.7 0.0
12:15 35.6 34.0 1017.5 1.6 E 9.7 0.0
12:20 35.5 35.0 1017.3 0.0 ENE 12.9 0.0
12:25 35.8 34.0 1017.3 0.0 ESE 8.0 0.0
12:30 35.8 34.0 1017.3 0.0 ESE 9.7 0.0
12:35 35.6 35.0 1017.2 0.0 ESE 11.3 0.0
12:40 35.6 34.0 1017.2 0.0 E 11.3 0.0
12:45 35.7 34.0 1017.2 0.0 NE 9.7 0.0
12:50 35.6 34.0 1017.1 0.0 E 9.7 0.0
12:55 35.6 35.0 1017.0 0.0 ENE 11.3 0.0
13:00 35.7 34.0 1017.2 0.0 NNE 11.3 0.0
13:05 35.9 35.0 1017.2 0.0 NNE 9.7 0.0
13:10 36.0 35.0 1017.1 0.0 NE 9.7 0.0
13:15 36.0 35.0 1017.0 0.0 ESE 11.3 0.0
13:20 36.0 35.0 1017.0 0.0 NNE 11.3 0.0
13:25 36.1 34.0 1016.9 0.0 NE 4.8 0.0
13:30 35.7 35.0 1017.0 0.0 NW 4.8 0.0
13:35 35.8 35.0 1017.0 0.0 NE 1.6 0.0
13:40 35.9 35.0 1016.9 0.0 ESE 1.6 0.0
13:45 36.1 35.0 1016.8 0.0 NW 1.6 0.0
13:50 36.1 36.0 1016.9 0.0 NW 1.6 0.0
13:55 36.1 35.0 1016.8 0.0 SSW 1.6 0.0
14:00 36.1 35.0 1016.8 0.0 WSW 4.8 0.0
14:05 36.1 35.0 1016.8 0.0 NE 4.8 0.0
14:10 36.2 35.0 1016.8 0.0 E 1.6 0.0
14:15 36.2 34.0 1016.7 0.0 SE 8.0 0.0
14:20 36.2 35.0 1016.8 0.0 SW 8.0 0.0
14:25 36.2 35.0 1016.8 1.6 NW 6.4 0.0
14:30 36.2 35.0 1016.8 0.0 NNW 6.4 0.0
14:35 36.0 34.0 1016.8 0.0 NNE 4.8 0.0
14:40 35.7 35.0 1016.7 0.0 NNE 3.2 0.0
14:45 35.7 34.0 1016.8 0.0 N 3.2 0.0
14:50 35.4 34.0 1016.9 0.0 E 9.7 0.0
14:55 35.4 35.0 1017.0 0.0 WNW 9.7 0.0
15:00 34.8 35.0 1016.9 0.0 N 8.0 0.0
15:05 34.3 36.0 1016.8 0.0 ESE 8.0 0.0
15:10 34.6 36.0 1016.8 0.0 W 1.6 0.0
15:15 35.1 36.0 1016.9 0.0 NE 1.6 0.0
15:20 35.1 36.0 1016.9 0.0 E 1.6 0.0
15:25 34.3 36.0 1016.8 0.0 NE 8.0 0.0
15:30 33.9 37.0 1016.9 0.0 WNW 6.4 0.0
15:35 33.9 37.0 1017.0 6.4 NE 6.4 0.0
15:40 33.7 37.0 1017.1 0.0 S 11.3 0.0
15:45 33.6 38.0 1017.0 0.0 WNW 8.0 0.0
15:50 33.7 37.0 1017.0 0.0 N 1.6 0.0
15:55 33.7 37.0 1017.0 0.0 NNE 4.8 0.0
16:00 33.8 37.0 1017.0 0.0 NNE 4.8 0.0
16:05 33.5 38.0 1017.1 0.0 ESE 4.8 0.0
16:10 33.3 38.0 1017.1 0.0 ENE 9.7 0.0
16:15 32.9 39.0 1017.0 1.6 NE 9.7 0.0
16:20 33.1 40.0 1017.1 0.0 NE 8.0 0.0
16:25 33.3 39.0 1017.1 0.0 ESE 3.2 0.0
16:30 32.9 39.0 1017.1 4.8 ENE 9.7 0.0
16:35 32.4 41.0 1017.2 0.0 E 9.7 0.0
16:40 32.7 40.0 1017.3 0.0 ESE 9.7 0.0
16:45 32.3 40.0 1017.3 0.0 NE 4.8 0.0
16:50 31.7 41.0 1017.3 0.0 NNE 4.8 0.0
16:55 31.3 43.0 1017.4 0.0 E 4.8 0.0
17:00 31.1 43.0 1017.4 0.0 NNE 1.6 0.0
17:05 30.7 44.0 1017.4 0.0 NE 8.0 0.0
17:10 30.5 45.0 1017.6 0.0 NE 8.0 0.0
17:15 30.3 45.0 1017.5 4.8 NE 4.8 0.0
17:20 30.2 45.0 1017.6 0.0 NE 8.0 0.0
17:25 30.2 45.0 1017.6 0.0 ENE 1.6 0.0
17:30 30.0 45.0 1017.7 0.0 ENE 0.0 0.0
17:35 29.9 46.0 1017.7 0.0 ENE 0.0 0.0
17:40 29.7 46.0 1017.8 0.0 E 0.0 0.0
17:45 29.7 46.0 1017.8 0.0 E 0.0 0.0
17:50 29.6 46.0 1017.8 0.0 E 0.0 0.0
17:55 29.5 47.0 1017.7 0.0 E 0.0 0.0
18:00 29.3 47.0 1017.7 0.0 E 0.0 0.0
18:05 28.9 48.0 1017.9 0.0 ENE 0.0 0.0
18:10 28.8 48.0 1017.8 0.0 ENE 3.2 0.0
18:15 28.6 49.0 1017.9 0.0 ENE 0.0 0.0
18:20 28.5 49.0 1017.9 0.0 ENE 0.0 0.0
18:25 28.5 49.0 1017.9 0.0 ENE 0.0 0.0
18:30 28.4 49.0 1018.0 0.0 ENE 0.0 0.0
18:35 28.4 49.0 1018.1 0.0 ENE 0.0 0.0
18:40 28.3 49.0 1018.1 0.0 ENE 0.0 0.0
18:45 28.3 49.0 1018.1 0.0 ENE 0.0 0.0
18:50 27.9 56.0 1018.2 0.0 ENE 0.0 0.0
18:55 27.4 59.0 1018.2 0.0 ENE 0.0 0.0
19:00 27.1 63.0 1018.3 0.0 NW 0.0 0.0
19:05 26.7 61.0 1018.4 0.0 NW 0.0 0.0
19:10 26.6 61.0 1018.4 0.0 NW 0.0 0.0
19:15 26.6 59.0 1018.5 0.0 NW 0.0 0.0
19:20 26.7 62.0 1018.5 0.0 NW 0.0 0.0
19:25 26.4 59.0 1018.6 0.0 W 0.0 0.0
19:30 26.3 59.0 1018.6 0.0 W 0.0 0.0
19:35 26.3 62.0 1018.7 0.0 W 0.0 0.0
19:40 26.2 60.0 1018.8 0.0 WSW 0.0 0.0
19:45 26.1 62.0 1018.9 0.0 WSW 0.0 0.0
19:50 26.1 61.0 1018.9 0.0 WSW 1.6 0.0
19:55 26.0 60.0 1019.0 0.0 WNW 3.2 0.0
20:00 25.8 64.0 1019.0 0.0 W 3.2 0.0
20:05 25.5 62.0 1018.9 0.0 WSW 1.6 0.0
20:10 25.4 67.0 1019.0 0.0 W 3.2 0.0
20:15 25.3 64.0 1019.0 0.0 W 3.2 0.0
20:20 25.3 63.0 1019.1 0.0 SW 0.0 0.0
20:25 25.7 58.0 1019.1 0.0 WSW 1.6 0.0
20:30 25.3 61.0 1019.1 0.0 W 1.6 0.0
20:35 25.1 60.0 1019.1 4.8 WNW 9.7 0.0
20:40 25.1 62.0 1019.1 0.0 WSW 9.7 0.0
20:45 25.1 62.0 1019.0 0.0 W 9.7 0.0
20:50 25.1 60.0 1019.0 0.0 WSW 9.7 0.0
20:55 25.1 62.0 1019.0 0.0 WSW 6.4 0.0
21:00 24.9 65.0 1019.1 0.0 WSW 11.3 0.0
21:05 24.8 66.0 1019.1 0.0 WSW 8.0 0.0
21:10 24.8 63.0 1019.1 0.0 W 9.7 0.0
21:15 25.2 60.0 1019.1 0.0 W 6.4 0.0
21:20 25.6 60.0 1019.2 0.0 SW 6.4 0.0
21:25 25.7 57.0 1019.1 0.0 WSW 9.7 0.0
21:30 25.6 58.0 1019.1 0.0 WSW 9.7 0.0
21:35 25.6 58.0 1019.1 0.0 WSW 8.0 0.0
21:40 25.4 59.0 1019.1 6.4 WSW 8.0 0.0
21:45 25.3 59.0 1019.2 9.7 W 11.3 0.0
21:50 25.2 60.0 1019.2 1.6 W 11.3 0.0
Màxima 36.2 71.0 1019.2 11.3 E 12.9 0.0
Mínima 20 34.0 1016.7
Total 0.0